CW1490 Weather Reports


Display with metric or nautical units.
time (UTC)temp
F
wind
direction
speed
MPH
gust
MPH
rain 1hr
in
rain 24hr
in
rain mn
in
humidity
%
barometer
mb
20160726160631 87 4 3.0 9.0 0.00 0.00 0.00 50 1009.0
20160726155138 87 345 5.0 13.0 0.00 0.00 0.00 48 1009.1
20160726153653 87 315 3.0 10.0 0.00 0.00 0.00 51 1009.0
20160726152137 85 15 7.0 14.0 0.00 0.00 0.00 55 1009.1
20160726150628 84 6 6.0 12.0 0.00 0.00 0.00 53 1008.9
20160726145122 85 327 2.0 10.0 0.00 0.00 0.00 53 1009.0
20160726143626 84 42 4.0 14.0 0.00 0.00 0.00 56 1009.1
20160726142120 83 350 5.0 13.0 0.00 0.00 0.00 55 1009.0
20160726140623 83 47 3.0 15.0 0.00 0.00 0.00 54 1008.9
20160726135120 83 31 5.0 17.0 0.00 0.00 0.00 52 1008.8
20160726133627 82 308 6.0 16.0 0.00 0.00 0.00 54 1008.8
20160726132115 83 201 4.0 12.0 0.00 0.00 0.00 53 1008.8
20160726130610 82 254 1.0 7.0 0.00 0.00 0.00 57 1008.8
20160726125100 81 47 2.0 7.0 0.00 0.00 0.00 64 1008.7
20160726123600 78 116 0.0 4.0 0.00 0.00 0.00 77 1008.7
20160726122056 76 176 1.0 4.0 0.00 0.00 0.00 81 1008.6
20160726120554 74 162 2.0 5.0 0.00 0.00 0.00 86 1008.7
20160726115053 73 209 1.0 4.0 0.00 0.00 0.00 91 1008.8
20160726113546 70 242 2.0 5.0 0.00 0.00 0.00 95 1008.9
20160726112043 68 186 1.0 3.0 0.00 0.00 0.00 96 1009.0
20160726110747 67 313 0.0 1.0 0.00 0.00 0.00 97 1009.1
20160726105041 65 294 0.0 1.0 0.00 0.00 0.00 96 1009.1
20160726103543 65 294 0.0 0.0 0.00 0.00 0.00 97 1008.9
20160726102042 64 294 0.0 0.0 0.00 0.00 0.00 96 1009.0
20160726100612 64 294 0.0 0.0 0.00 0.00 0.00 96 1008.9
20160726095049 64 294 0.0 3.0 0.00 0.00 0.00 97 1008.6
20160726093532 64 266 0.0 3.0 0.00 0.00 0.00 96 1008.5
20160726092031 64 260 0.0 4.0 0.00 0.00 0.00 96 1008.3
20160726090532 65 273 0.0 1.0 0.00 0.00 0.00 96 1008.2
20160726085031 65 273 0.0 0.0 0.00 0.00 0.00 96 1008.1
20160726083525 65 273 0.0 3.0 0.00 0.00 0.00 96 1007.9
20160726082022 65 265 2.0 4.0 0.00 0.00 0.00 96 1007.8
20160726080526 65 278 1.0 2.0 0.00 0.00 0.00 96 1007.7
20160726075020 66 278 1.0 4.0 0.00 0.00 0.00 96 1007.6
20160726073521 66 299 0.0 0.0 0.00 0.00 0.00 96 1007.6
20160726072017 66 299 0.0 0.0 0.00 0.00 0.00 96 1007.5
20160726070517 67 299 0.0 0.0 0.00 0.00 0.00 96 1007.4
20160726065018 67 299 0.0 0.0 0.00 0.00 0.00 95 1007.4
20160726063515 68 299 0.0 0.0 0.00 0.00 0.00 95 1007.2
20160726062020 68 299 0.0 0.0 0.00 0.00 0.00 94 1007.2
20160726060514 68 299 0.0 0.0 0.00 0.00 0.00 94 1007.3
20160726055011 69 299 0.0 0.0 0.00 0.00 0.00 94 1007.4
20160726053510 69 299 0.0 1.0 0.00 0.00 0.00 93 1007.5
20160726052004 70 272 0.0 3.0 0.00 0.00 0.00 93 1007.5
20160726050502 70 250 2.0 4.0 0.00 0.00 0.00 93 1007.6
20160726045002 70 41 1.0 3.0 0.00 0.00 0.00 92 1007.7
20160726043505 71 41 0.0 0.0 0.00 0.00 0.00 92 1007.7
20160726041956 72 41 0.0 2.0 0.00 0.00 0.00 91 1007.8
20160726040453 73 41 3.0 5.0 0.00 0.00 0.00 87 1007.7
20160726035152 74 239 2.0 5.0 0.00 0.00 0.00 87 1007.7
20160726033452 73 215 0.0 2.0 0.00 0.00 0.00 88 1008.1
20160726031955 73 215 1.0 4.0 0.00 0.00 0.00 89 1007.9
20160726030504 74 210 0.0 0.0 0.00 0.00 0.00 89 1008.1
20160726024953 75 210 0.0 0.0 0.00 0.00 0.00 87 1008.2
20160726023449 75 210 0.0 0.0 0.00 0.00 0.00 86 1008.2
20160726021959 76 210 0.0 0.0 0.00 0.00 0.00 85 1008.3
20160726020450 76 210 0.0 0.0 0.00 0.00 0.00 85 1008.3
20160726014948 76 209 0.0 0.0 0.00 0.00 0.00 84 1008.3
20160726013450 76 209 0.0 0.0 0.00 0.00 0.00 84 1008.4
20160726011947 77 209 0.0 0.0 0.00 0.00 0.00 83 1008.1
20160726010445 77 209 0.0 0.0 0.00 0.00 0.00 81 1007.8
20160726004950 78 209 0.0 0.0 0.00 0.00 0.00 79 1007.5
20160726003446 79 209 0.0 0.0 0.00 0.00 0.00 77 1007.2
20160726001946 80 209 0.0 3.0 0.00 0.00 0.00 74 1006.8
20160726000446 81 216 2.0 3.0 0.00 0.00 0.00 73 1006.5
20160725234955 81 255 0.0 3.0 0.00 0.00 0.00 72 1007.0
20160725233448 81 245 0.0 2.0 0.00 0.00 0.00 74 1005.7
20160725231940 83 245 2.0 7.0 0.00 0.00 0.00 68 1006.0
20160725230443 83 272 0.0 2.0 0.00 0.00 0.00 69 1006.7
20160725224938 84 311 1.0 2.0 0.00 0.00 0.00 65 1007.1
20160725223438 85 303 1.0 5.0 0.00 0.00 0.00 64 1007.3
20160725221940 86 326 2.0 9.0 0.00 0.00 0.00 61 1007.3
20160725220441 87 308 1.0 8.0 0.00 0.00 0.00 59 1007.6
20160725214934 88 262 3.0 10.0 0.00 0.00 0.00 57 1007.6
20160725213435 88 258 2.0 4.0 0.00 0.00 0.00 58 1007.4
20160725211939 89 321 2.0 7.0 0.00 0.00 0.00 56 1007.4
20160725210432 89 339 1.0 7.0 0.00 0.00 0.00 57 1007.3
20160725204952 90 261 6.0 12.0 0.00 0.00 0.00 55 1007.0
20160725203545 91 230 2.0 8.0 0.00 0.00 0.00 55 1006.8
20160725201942 89 250 3.0 7.0 0.00 0.00 0.00 54 1006.7
20160725200428 90 197 3.0 6.0 0.00 0.00 0.00 52 1007.1
20160725194929 89 209 4.0 9.0 0.00 0.00 0.00 53 1007.4
20160725193426 89 207 3.0 6.0 0.00 0.00 0.00 55 1007.3
20160725191932 89 214 3.0 10.0 0.00 0.00 0.00 52 1008.3
20160725190437 90 249 2.0 8.0 0.00 0.00 0.00 51 1008.6
20160725184922 90 202 7.0 12.0 0.00 0.00 0.00 51 1008.8
20160725183422 90 277 4.0 11.0 0.00 0.00 0.00 50 1008.9
20160725181924 90 221 5.0 8.0 0.00 0.00 0.00 55 1008.9
20160725180412 90 207 3.0 9.0 0.00 0.00 0.00 55 1009.1
20160725174912 90 167 1.0 7.0 0.00 0.00 0.00 56 1009.3
20160725173412 90 139 3.0 8.0 0.00 0.00 0.00 55 1009.3
20160725171907 90 166 2.0 7.0 0.00 0.00 0.00 58 1009.5
20160725170405 87 192 1.0 5.0 0.00 0.00 0.00 58 1009.6
20160725164905 87 147 1.0 6.0 0.00 0.00 0.00 58 1009.8
20160725163403 87 257 1.0 4.0 0.00 0.00 0.00 57 1009.9
20160725161905 85 167 3.0 6.0 0.00 0.00 0.00 59 1010.2